Location: Zagreb
(45.8000°N, 16.0000°E)
Time: 10:09:29
(UTC+01:00)

BEESAT 2 - Pass Details

Date: 08 November 2020
Orbit: 489 x 535 km, 64.9° (Epoch: 27 November)

Event Time Altitude Azimuth Distance (km) Brightness Sun altitude
Rises 18:52:56 0° 332° (NNW) 2,694 ? -24.7°
Reaches altitude 10° 18:55:31 10° 347° (NNW) 1,798 ? -25.1°
Enters shadow 18:56:05 13° 353° (N) 1,624 ? -25.2°
